| time (UTC) | temp C | wind direction | speed KPH | gust KPH | rain 1hr cm | rain 24hr cm | rain mn cm | humidity % | barometer mb |
| 20260505113056 | 20 | 0 | 4.8 | 8.0 | 0.00 | 0.00 | 0.00 | 85 | 1005.9 |
| 20260505112553 | 20 | 198 | 9.7 | 9.7 | 0.00 | 0.00 | 0.00 | 85 | 1005.7 |
| 20260505112051 | 20 | 127 | 4.8 | 8.0 | 0.00 | 0.00 | 0.00 | 85 | 1005.8 |
| 20260505111550 | 20 | 127 | 3.2 | 11.3 | 0.00 | 0.00 | 0.00 | 85 | 1006.0 |
| 20260505111046 | 20 | 175 | 3.2 | 9.7 | 0.00 | 0.00 | 0.00 | 85 | 1005.8 |
| 20260505110543 | 20 | 344 | 0.0 | 9.7 | 0.00 | 0.00 | 0.00 | 85 | 1005.9 |
| 20260505102015 | 20 | 266 | 4.8 | 9.7 | 0.00 | 0.00 | 0.00 | 84 | 1005.6 |
| 20260505101514 | 20 | 3 | 3.2 | 14.5 | 0.00 | 0.00 | 0.00 | 84 | 1005.6 |
| 20260505101010 | 20 | 179 | 3.2 | 16.1 | 0.00 | 0.00 | 0.00 | 84 | 1005.7 |
| 20260505100507 | 20 | 318 | 3.2 | 14.5 | 0.00 | 0.00 | 0.00 | 83 | 1005.6 |
| 20260505100003 | 20 | 158 | 6.4 | 16.1 | 0.00 | 0.00 | 0.00 | 83 | 1005.6 |
| 20260505095459 | 20 | 214 | 8.0 | 17.7 | 0.00 | 0.00 | 0.00 | 83 | 1005.6 |
| 20260505094955 | 20 | 195 | 3.2 | 16.1 | 0.00 | 0.00 | 0.00 | 83 | 1005.6 |
| 20260505094453 | 20 | 206 | 4.8 | 16.1 | 0.00 | 0.00 | 0.00 | 83 | 1005.7 |
| 20260505093949 | 20 | 95 | 1.6 | 9.7 | 0.00 | 0.00 | 0.00 | 83 | 1005.5 |
| 20260505093446 | 20 | 135 | 3.2 | 17.7 | 0.00 | 0.00 | 0.00 | 83 | 1005.5 |
| 20260505092943 | 20 | 277 | 8.0 | 17.7 | 0.00 | 0.00 | 0.00 | 83 | 1005.8 |
| 20260505092440 | 20 | 221 | 9.7 | 9.7 | 0.00 | 0.00 | 0.00 | 83 | 1005.7 |
| 20260505091938 | 20 | 96 | 3.2 | 12.9 | 0.00 | 0.00 | 0.00 | 83 | 1005.8 |
| 20260505091435 | 20 | 206 | 11.3 | 12.9 | 0.00 | 0.00 | 0.00 | 84 | 1005.6 |
| 20260505090933 | 20 | 210 | 6.4 | 9.7 | 0.00 | 0.00 | 0.00 | 84 | 1005.8 |
| 20260505090431 | 20 | 213 | 6.4 | 12.9 | 0.00 | 0.00 | 0.00 | 84 | 1005.7 |
| 20260505085928 | 20 | 87 | 1.6 | 8.0 | 0.00 | 0.00 | 0.00 | 84 | 1005.7 |
| 20260505085426 | 20 | 234 | 3.2 | 14.5 | 0.00 | 0.00 | 0.00 | 84 | 1006.1 |
| 20260505084924 | 20 | 233 | 12.9 | 12.9 | 0.00 | 0.00 | 0.00 | 84 | 1006.1 |
| 20260505084422 | 20 | 32 | 6.4 | 12.9 | 0.00 | 0.00 | 0.00 | 84 | 1005.9 |
| 20260505083920 | 20 | 88 | 1.6 | 16.1 | 0.00 | 0.00 | 0.00 | 84 | 1006.0 |
| 20260505083417 | 20 | 291 | 3.2 | 6.4 | 0.00 | 0.00 | 0.00 | 84 | 1005.9 |
| 20260505082913 | 20 | 12 | 4.8 | 9.7 | 0.00 | 0.00 | 0.00 | 84 | 1005.9 |
| 20260505082409 | 20 | 190 | 3.2 | 8.0 | 0.00 | 0.00 | 0.00 | 84 | 1006.0 |
| 20260505081906 | 20 | 69 | 6.4 | 11.3 | 0.00 | 0.00 | 0.00 | 84 | 1006.1 |
| 20260505081403 | 20 | 123 | 6.4 | 9.7 | 0.00 | 0.00 | 0.00 | 84 | 1006.1 |
| 20260505080859 | 20 | 189 | 0.0 | 17.7 | 0.00 | 0.00 | 0.00 | 84 | 1006.4 |
| 20260505080355 | 20 | 195 | 8.0 | 11.3 | 0.00 | 0.00 | 0.00 | 84 | 1006.4 |
| 20260505075851 | 20 | 163 | 3.2 | 14.5 | 0.00 | 0.00 | 0.00 | 84 | 1006.4 |
| 20260505075348 | 20 | 101 | 6.4 | 6.4 | 0.00 | 0.00 | 0.00 | 84 | 1006.3 |
| 20260505074845 | 20 | 184 | 6.4 | 12.9 | 0.00 | 0.00 | 0.00 | 83 | 1006.5 |
| 20260505074342 | 20 | 195 | 1.6 | 4.8 | 0.00 | 0.00 | 0.00 | 83 | 1006.4 |
| 20260505073840 | 20 | 80 | 6.4 | 14.5 | 0.00 | 0.00 | 0.00 | 83 | 1006.6 |
| 20260505073337 | 20 | 196 | 4.8 | 8.0 | 0.00 | 0.00 | 0.00 | 83 | 1006.6 |
| 20260505072834 | 20 | 159 | 4.8 | 9.7 | 0.00 | 0.00 | 0.00 | 83 | 1006.6 |
| 20260505072330 | 20 | 260 | 3.2 | 11.3 | 0.00 | 0.00 | 0.00 | 83 | 1006.5 |
| 20260505071826 | 20 | 238 | 3.2 | 9.7 | 0.00 | 0.00 | 0.00 | 83 | 1006.5 |
| 20260505071323 | 20 | 188 | 3.2 | 11.3 | 0.00 | 0.00 | 0.00 | 82 | 1006.7 |
| 20260505070821 | 20 | 101 | 1.6 | 12.9 | 0.00 | 0.00 | 0.00 | 82 | 1006.7 |
| 20260505070318 | 20 | 82 | 1.6 | 9.7 | 0.00 | 0.00 | 0.00 | 82 | 1006.9 |
| 20260505065813 | 20 | 226 | 6.4 | 8.0 | 0.00 | 0.00 | 0.00 | 82 | 1006.9 |
| 20260505065310 | 20 | 107 | 4.8 | 14.5 | 0.00 | 0.00 | 0.00 | 81 | 1006.9 |
| 20260505064807 | 20 | 119 | 0.0 | 8.0 | 0.00 | 0.00 | 0.00 | 81 | 1007.0 |
| 20260505064304 | 20 | 231 | 6.4 | 9.7 | 0.00 | 0.00 | 0.00 | 81 | 1007.2 |
| 20260505063802 | 20 | 141 | 4.8 | 9.7 | 0.00 | 0.00 | 0.00 | 81 | 1007.2 |
| 20260505063258 | 20 | 88 | 1.6 | 16.1 | 0.00 | 0.00 | 0.00 | 81 | 1007.0 |
| 20260505062754 | 20 | 113 | 4.8 | 9.7 | 0.00 | 0.00 | 0.00 | 81 | 1007.1 |
| 20260505062252 | 20 | 180 | 3.2 | 6.4 | 0.00 | 0.00 | 0.00 | 81 | 1007.1 |
| 20260505061748 | 20 | 140 | 3.2 | 8.0 | 0.00 | 0.00 | 0.00 | 80 | 1007.3 |
| 20260505061247 | 20 | 198 | 6.4 | 9.7 | 0.00 | 0.00 | 0.00 | 80 | 1007.3 |
| 20260505060744 | 20 | 258 | 4.8 | 8.0 | 0.00 | 0.00 | 0.00 | 80 | 1007.2 |
| 20260505060241 | 20 | 14 | 6.4 | 8.0 | 0.00 | 0.00 | 0.00 | 80 | 1007.4 |
| 20260505055736 | 20 | 243 | 0.0 | 6.4 | 0.00 | 0.00 | 0.00 | 80 | 1007.3 |
| 20260505055232 | 20 | 118 | 1.6 | 6.4 | 0.00 | 0.00 | 0.00 | 79 | 1007.3 |
| 20260505054730 | 20 | 235 | 3.2 | 9.7 | 0.00 | 0.00 | 0.00 | 79 | 1007.6 |
| 20260505054228 | 20 | 61 | 6.4 | 9.7 | 0.00 | 0.00 | 0.00 | 79 | 1007.4 |
| 20260505053726 | 20 | 353 | 1.6 | 8.0 | 0.00 | 0.00 | 0.00 | 79 | 1007.6 |
| 20260505053222 | 20 | 85 | 0.0 | 6.4 | 0.00 | 0.00 | 0.00 | 79 | 1007.6 |
| 20260505052719 | 20 | 206 | 6.4 | 9.7 | 0.00 | 0.00 | 0.00 | 79 | 1007.5 |
| 20260505052216 | 20 | 275 | 6.4 | 9.7 | 0.00 | 0.00 | 0.00 | 78 | 1007.6 |
| 20260505051713 | 20 | 228 | 6.4 | 6.4 | 0.00 | 0.00 | 0.00 | 78 | 1007.5 |
| 20260505051211 | 20 | 245 | 3.2 | 6.4 | 0.00 | 0.00 | 0.00 | 78 | 1007.7 |
| 20260505050709 | 20 | 227 | 3.2 | 8.0 | 0.00 | 0.00 | 0.00 | 78 | 1007.7 |
| 20260505050207 | 20 | 103 | 0.0 | 9.7 | 0.00 | 0.00 | 0.00 | 78 | 1007.8 |
| 20260505041637 | 21 | 124 | 0.0 | 9.7 | 0.00 | 0.00 | 0.00 | 74 | 1007.8 |
| 20260505041134 | 21 | 329 | 3.2 | 14.5 | 0.00 | 0.00 | 0.00 | 73 | 1007.8 |
| 20260505040631 | 20 | 201 | 4.8 | 9.7 | 0.00 | 0.00 | 0.00 | 73 | 1008.0 |
| 20260505040128 | 20 | 173 | 0.0 | 3.2 | 0.00 | 0.00 | 0.00 | 73 | 1008.0 |
| 20260505035624 | 20 | 1 | 3.2 | 6.4 | 0.00 | 0.00 | 0.00 | 73 | 1008.0 |
| 20260505035120 | 20 | 277 | 4.8 | 4.8 | 0.00 | 0.00 | 0.00 | 73 | 1007.9 |
| 20260505034617 | 21 | 69 | 3.2 | 4.8 | 0.00 | 0.00 | 0.00 | 72 | 1008.0 |
| 20260505034114 | 21 | 285 | 4.8 | 6.4 | 0.00 | 0.00 | 0.00 | 72 | 1008.0 |
| 20260505033611 | 21 | 41 | 1.6 | 6.4 | 0.00 | 0.00 | 0.00 | 71 | 1008.1 |
| 20260505033110 | 21 | 174 | 3.2 | 4.8 | 0.00 | 0.00 | 0.00 | 71 | 1008.1 |
| 20260505032607 | 21 | 42 | 1.6 | 6.4 | 0.00 | 0.00 | 0.00 | 70 | 1008.1 |
| 20260505032103 | 21 | 64 | 3.2 | 6.4 | 0.00 | 0.00 | 0.00 | 70 | 1007.9 |
| 20260505031601 | 21 | 111 | 4.8 | 6.4 | 0.00 | 0.00 | 0.00 | 70 | 1007.7 |
| 20260505031057 | 21 | 165 | 0.0 | 4.8 | 0.00 | 0.00 | 0.00 | 70 | 1007.7 |
| 20260505030554 | 21 | 173 | 3.2 | 4.8 | 0.00 | 0.00 | 0.00 | 70 | 1007.8 |
| 20260505030050 | 21 | 84 | 3.2 | 4.8 | 0.00 | 0.00 | 0.00 | 70 | 1007.9 |
| 20260505025545 | 21 | 185 | 3.2 | 4.8 | 0.00 | 0.00 | 0.00 | 69 | 1007.9 |
| 20260505025045 | 21 | 92 | 3.2 | 4.8 | 0.00 | 0.00 | 0.00 | 69 | 1007.9 |
| 20260505024541 | 21 | 32 | 0.0 | 3.2 | 0.00 | 0.00 | 0.00 | 69 | 1007.9 |
| 20260505024038 | 21 | 144 | 1.6 | 4.8 | 0.00 | 0.00 | 0.00 | 69 | 1007.9 |
| 20260505023535 | 21 | 118 | 1.6 | 3.2 | 0.00 | 0.00 | 0.00 | 70 | 1007.7 |
| 20260505023033 | 21 | 214 | 0.0 | 4.8 | 0.00 | 0.00 | 0.00 | 69 | 1007.8 |
| 20260505022530 | 21 | 198 | 1.6 | 3.2 | 0.00 | 0.00 | 0.00 | 69 | 1007.7 |
| 20260505022027 | 21 | 296 | 0.0 | 3.2 | 0.00 | 0.00 | 0.00 | 68 | 1007.9 |
| 20260505021524 | 21 | 23 | 3.2 | 3.2 | 0.00 | 0.00 | 0.00 | 68 | 1007.9 |
| 20260505021021 | 21 | 312 | 1.6 | 6.4 | 0.00 | 0.00 | 0.00 | 68 | 1007.9 |
| 20260505020520 | 21 | 119 | 1.6 | 3.2 | 0.00 | 0.00 | 0.00 | 69 | 1007.8 |
| 20260505020018 | 21 | 77 | 0.0 | 3.2 | 0.00 | 0.00 | 0.00 | 69 | 1007.8 |
| 20260505015515 | 21 | 168 | 1.6 | 3.2 | 0.00 | 0.00 | 0.00 | 68 | 1007.7 |
| 20260505015012 | 21 | 89 | 0.0 | 4.8 | 0.00 | 0.00 | 0.00 | 67 | 1007.6 |
| 20260505014509 | 21 | 62 | 0.0 | 3.2 | 0.00 | 0.00 | 0.00 | 67 | 1007.5 |
| 20260505014006 | 21 | 139 | 3.2 | 4.8 | 0.00 | 0.00 | 0.00 | 66 | 1007.6 |
| 20260505013503 | 21 | 155 | 0.0 | 3.2 | 0.00 | 0.00 | 0.00 | 66 | 1007.6 |
| 20260505013000 | 22 | 47 | 1.6 | 4.8 | 0.00 | 0.00 | 0.00 | 65 | 1007.7 |
| 20260505012458 | 22 | 130 | 1.6 | 4.8 | 0.00 | 0.00 | 0.00 | 64 | 1007.5 |
| 20260505011955 | 22 | 126 | 1.6 | 6.4 | 0.00 | 0.00 | 0.00 | 63 | 1007.6 |
| 20260505011450 | 22 | 286 | 1.6 | 4.8 | 0.00 | 0.00 | 0.00 | 63 | 1007.5 |
| 20260505010948 | 22 | 132 | 3.2 | 6.4 | 0.00 | 0.00 | 0.00 | 63 | 1007.4 |
| 20260505010443 | 22 | 132 | 1.6 | 4.8 | 0.00 | 0.00 | 0.00 | 62 | 1007.4 |
| 20260505005939 | 22 | 55 | 1.6 | 3.2 | 0.00 | 0.00 | 0.00 | 62 | 1007.2 |
| 20260505005436 | 23 | 103 | 1.6 | 6.4 | 0.00 | 0.00 | 0.00 | 61 | 1007.5 |
| 20260505004934 | 23 | 184 | 0.0 | 6.4 | 0.00 | 0.00 | 0.00 | 59 | 1007.4 |
| 20260505004430 | 23 | 153 | 1.6 | 3.2 | 0.00 | 0.00 | 0.00 | 60 | 1007.4 |
| 20260505003928 | 23 | 281 | 0.0 | 3.2 | 0.00 | 0.00 | 0.00 | 59 | 1007.2 |
| 20260505003425 | 23 | 124 | 4.8 | 6.4 | 0.00 | 0.00 | 0.00 | 58 | 1007.5 |
| 20260505002921 | 23 | 100 | 8.0 | 8.0 | 0.00 | 0.00 | 0.00 | 58 | 1007.5 |
| 20260505002417 | 23 | 142 | 0.0 | 3.2 | 0.00 | 0.00 | 0.00 | 59 | 1007.7 |
| 20260505001916 | 24 | 99 | 1.6 | 3.2 | 0.00 | 0.00 | 0.00 | 57 | 1007.6 |
| 20260505001413 | 24 | 293 | 1.6 | 6.4 | 0.00 | 0.00 | 0.00 | 55 | 1007.6 |
| 20260505000910 | 24 | 207 | 1.6 | 8.0 | 0.00 | 0.00 | 0.00 | 56 | 1007.5 |
| 20260505000408 | 24 | 71 | 4.8 | 9.7 | 0.00 | 0.00 | 0.00 | 56 | 1007.8 |
| 20260504235904 | 25 | 34 | 6.4 | 6.4 | 0.00 | 0.00 | 0.00 | 54 | 1007.8 |
| 20260504235401 | 25 | 339 | 0.0 | 16.1 | 0.00 | 0.00 | 0.00 | 54 | 1007.9 |
| 20260504234857 | 25 | 25 | 0.0 | 4.8 | 0.00 | 0.00 | 0.00 | 54 | 1007.8 |
| 20260504234355 | 25 | 269 | 3.2 | 6.4 | 0.00 | 0.00 | 0.00 | 54 | 1007.9 |
| 20260504233852 | 25 | 111 | 3.2 | 6.4 | 0.00 | 0.00 | 0.00 | 55 | 1008.0 |
| 20260504233347 | 25 | 79 | 8.0 | 9.7 | 0.00 | 0.00 | 0.00 | 53 | 1008.3 |
| 20260504232844 | 25 | 186 | 14.5 | 19.3 | 0.00 | 0.00 | 0.00 | 52 | 1008.1 |
| 20260504232342 | 25 | 73 | 1.6 | 4.8 | 0.00 | 0.00 | 0.00 | 52 | 1008.2 |
| 20260504231838 | 25 | 108 | 0.0 | 8.0 | 0.00 | 0.00 | 0.00 | 51 | 1008.2 |
| 20260504231335 | 25 | 190 | 4.8 | 17.7 | 0.00 | 0.00 | 0.00 | 51 | 1008.2 |
| 20260504230831 | 25 | 250 | 4.8 | 9.7 | 0.00 | 0.00 | 0.00 | 50 | 1008.3 |
| 20260504230329 | 25 | 304 | 3.2 | 8.0 | 0.00 | 0.00 | 0.00 | 50 | 1008.3 |
| 20260504225827 | 25 | 225 | 6.4 | 8.0 | 0.00 | 0.00 | 0.00 | 49 | 1008.7 |
| 20260504225323 | 26 | 198 | 3.2 | 12.9 | 0.00 | 0.00 | 0.00 | 50 | 1008.4 |
| 20260504224821 | 26 | 103 | 8.0 | 12.9 | 0.00 | 0.00 | 0.00 | 49 | 1008.4 |
| 20260504224318 | 26 | 180 | 4.8 | 17.7 | 0.00 | 0.00 | 0.00 | 47 | 1008.4 |
| 20260504223815 | 26 | 197 | 1.6 | 11.3 | 0.00 | 0.00 | 0.00 | 47 | 1008.8 |
| 20260504223310 | 26 | 104 | 6.4 | 12.9 | 0.00 | 0.00 | 0.00 | 49 | 1008.6 |
| 20260504222807 | 26 | 351 | 3.2 | 4.8 | 0.00 | 0.00 | 0.00 | 49 | 1008.8 |
| 20260504222305 | 26 | 245 | 4.8 | 14.5 | 0.00 | 0.00 | 0.00 | 48 | 1008.8 |
| 20260504221802 | 26 | 69 | 3.2 | 17.7 | 0.00 | 0.00 | 0.00 | 47 | 1008.7 |
| 20260504221258 | 26 | 233 | 3.2 | 8.0 | 0.00 | 0.00 | 0.00 | 47 | 1008.8 |
| 20260504220755 | 27 | 227 | 3.2 | 9.7 | 0.00 | 0.00 | 0.00 | 45 | 1008.8 |
| 20260504220252 | 27 | 277 | 1.6 | 11.3 | 0.00 | 0.00 | 0.00 | 46 | 1008.9 |
| 20260504215749 | 27 | 225 | 6.4 | 6.4 | 0.00 | 0.00 | 0.00 | 46 | 1008.9 |
| 20260504215246 | 27 | 305 | 6.4 | 9.7 | 0.00 | 0.00 | 0.00 | 45 | 1009.0 |
| 20260504214742 | 27 | 158 | 6.4 | 16.1 | 0.00 | 0.00 | 0.00 | 45 | 1009.2 |
| 20260504214238 | 27 | 306 | 8.0 | 14.5 | 0.00 | 0.00 | 0.00 | 43 | 1009.2 |
| 20260504213735 | 27 | 267 | 1.6 | 9.7 | 0.00 | 0.00 | 0.00 | 46 | 1009.3 |
| 20260504213232 | 27 | 65 | 8.0 | 8.0 | 0.00 | 0.00 | 0.00 | 46 | 1009.1 |
| 20260504212729 | 27 | 232 | 1.6 | 11.3 | 0.00 | 0.00 | 0.00 | 46 | 1009.2 |
| 20260504212225 | 27 | 229 | 12.9 | 16.1 | 0.00 | 0.00 | 0.00 | 45 | 1009.4 |
| 20260504211723 | 27 | 246 | 11.3 | 16.1 | 0.00 | 0.00 | 0.00 | 43 | 1009.7 |
| 20260504211219 | 27 | 224 | 1.6 | 12.9 | 0.00 | 0.00 | 0.00 | 45 | 1009.6 |
| 20260504210717 | 27 | 212 | 4.8 | 9.7 | 0.00 | 0.00 | 0.00 | 44 | 1009.9 |
| 20260504210213 | 27 | 189 | 4.8 | 16.1 | 0.00 | 0.00 | 0.00 | 44 | 1009.9 |
| 20260504205710 | 27 | 290 | 3.2 | 12.9 | 0.00 | 0.00 | 0.00 | 44 | 1010.0 |
| 20260504205208 | 27 | 220 | 3.2 | 14.5 | 0.00 | 0.00 | 0.00 | 44 | 1010.1 |
| 20260504204706 | 27 | 146 | 3.2 | 9.7 | 0.00 | 0.00 | 0.00 | 46 | 1010.3 |
| 20260504204204 | 27 | 308 | 6.4 | 12.9 | 0.00 | 0.00 | 0.00 | 44 | 1010.5 |
| 20260504203703 | 28 | 211 | 6.4 | 6.4 | 0.00 | 0.00 | 0.00 | 44 | 1010.6 |
| 20260504203201 | 28 | 141 | 3.2 | 11.3 | 0.00 | 0.00 | 0.00 | 43 | 1010.7 |
| 20260504202700 | 27 | 51 | 1.6 | 8.0 | 0.00 | 0.00 | 0.00 | 42 | 1010.8 |
| 20260504202158 | 27 | 222 | 4.8 | 8.0 | 0.00 | 0.00 | 0.00 | 43 | 1010.8 |
| 20260504201654 | 27 | 203 | 6.4 | 11.3 | 0.00 | 0.00 | 0.00 | 45 | 1011.0 |
| 20260504201152 | 27 | 291 | 8.0 | 11.3 | 0.00 | 0.00 | 0.00 | 45 | 1011.0 |
| 20260504200649 | 27 | 145 | 3.2 | 14.5 | 0.00 | 0.00 | 0.00 | 43 | 1011.1 |
| 20260504200146 | 27 | 333 | 6.4 | 14.5 | 0.00 | 0.00 | 0.00 | 43 | 1011.3 |
| 20260504195641 | 27 | 205 | 11.3 | 12.9 | 0.00 | 0.00 | 0.00 | 43 | 1011.3 |
| 20260504195138 | 27 | 164 | 0.0 | 12.9 | 0.00 | 0.00 | 0.00 | 44 | 1011.5 |
| 20260504194635 | 27 | 18 | 3.2 | 11.3 | 0.00 | 0.00 | 0.00 | 44 | 1011.7 |
| 20260504194131 | 27 | 242 | 3.2 | 9.7 | 0.00 | 0.00 | 0.00 | 45 | 1011.7 |
| 20260504193627 | 27 | 204 | 6.4 | 22.5 | 0.00 | 0.00 | 0.00 | 44 | 1011.7 |
| 20260504193126 | 27 | 239 | 8.0 | 11.3 | 0.00 | 0.00 | 0.00 | 42 | 1011.9 |
| 20260504192623 | 27 | 23 | 0.0 | 9.7 | 0.00 | 0.00 | 0.00 | 46 | 1011.9 |
| 20260504192121 | 26 | 268 | 4.8 | 12.9 | 0.00 | 0.00 | 0.00 | 46 | 1011.8 |
| 20260504191619 | 27 | 326 | 0.0 | 9.7 | 0.00 | 0.00 | 0.00 | 45 | 1012.0 |
| 20260504191115 | 26 | 100 | 1.6 | 12.9 | 0.00 | 0.00 | 0.00 | 47 | 1012.0 |
| 20260504190611 | 26 | 248 | 3.2 | 8.0 | 0.00 | 0.00 | 0.00 | 46 | 1012.2 |
| 20260504190108 | 26 | 96 | 8.0 | 16.1 | 0.00 | 0.00 | 0.00 | 46 | 1012.0 |
| 20260504185605 | 26 | 32 | 3.2 | 6.4 | 0.00 | 0.00 | 0.00 | 46 | 1012.3 |
| 20260504185101 | 26 | 231 | 8.0 | 11.3 | 0.00 | 0.00 | 0.00 | 44 | 1012.4 |
| 20260504184557 | 26 | 289 | 11.3 | 17.7 | 0.00 | 0.00 | 0.00 | 44 | 1012.6 |
| 20260504184052 | 26 | 226 | 6.4 | 14.5 | 0.00 | 0.00 | 0.00 | 43 | 1012.6 |
| 20260504183549 | 26 | 77 | 6.4 | 12.9 | 0.00 | 0.00 | 0.00 | 44 | 1012.7 |
| 20260504183048 | 26 | 237 | 8.0 | 9.7 | 0.00 | 0.00 | 0.00 | 45 | 1012.6 |
| 20260504182544 | 26 | 224 | 3.2 | 9.7 | 0.00 | 0.00 | 0.00 | 47 | 1012.6 |
| 20260504182042 | 26 | 252 | 3.2 | 19.3 | 0.00 | 0.00 | 0.00 | 45 | 1012.8 |
| 20260504181539 | 26 | 100 | 3.2 | 16.1 | 0.00 | 0.00 | 0.00 | 46 | 1012.9 |
| 20260504181037 | 26 | 208 | 9.7 | 12.9 | 0.00 | 0.00 | 0.00 | 45 | 1012.9 |
| 20260504180535 | 26 | 102 | 11.3 | 14.5 | 0.00 | 0.00 | 0.00 | 47 | 1013.0 |
| 20260504180034 | 26 | 291 | 3.2 | 8.0 | 0.00 | 0.00 | 0.00 | 47 | 1013.1 |
| 20260504175531 | 26 | 213 | 3.2 | 9.7 | 0.00 | 0.00 | 0.00 | 45 | 1013.2 |
| 20260504175028 | 26 | 29 | 4.8 | 9.7 | 0.00 | 0.00 | 0.00 | 45 | 1013.2 |
| 20260504174526 | 25 | 71 | 4.8 | 9.7 | 0.00 | 0.00 | 0.00 | 47 | 1013.4 |
| 20260504174022 | 25 | 168 | 3.2 | 11.3 | 0.00 | 0.00 | 0.00 | 47 | 1013.3 |
| 20260504173519 | 25 | 217 | 6.4 | 14.5 | 0.00 | 0.00 | 0.00 | 47 | 1013.4 |
| 20260504173017 | 25 | 123 | 3.2 | 12.9 | 0.00 | 0.00 | 0.00 | 46 | 1013.5 |
| 20260504172513 | 25 | 253 | 6.4 | 11.3 | 0.00 | 0.00 | 0.00 | 44 | 1013.7 |
| 20260504172009 | 25 | 96 | 1.6 | 6.4 | 0.00 | 0.00 | 0.00 | 48 | 1013.9 |
| 20260504171506 | 24 | 184 | 4.8 | 14.5 | 0.00 | 0.00 | 0.00 | 47 | 1013.9 |
| 20260504171003 | 24 | 221 | 6.4 | 12.9 | 0.00 | 0.00 | 0.00 | 48 | 1013.7 |
| 20260504170459 | 25 | 215 | 0.0 | 12.9 | 0.00 | 0.00 | 0.00 | 46 | 1014.0 |
| 20260504160419 | 23 | 245 | 12.9 | 20.9 | 0.00 | 0.00 | 0.00 | 47 | 1014.3 |
| 20260504150843 | 21 | 201 | 8.0 | 17.7 | 0.00 | 0.00 | 0.00 | 55 | 1014.6 |
| 20260504150339 | 21 | 216 | 6.4 | 17.7 | 0.00 | 0.00 | 0.00 | 56 | 1014.9 |
| 20260504141309 | 20 | 186 | 3.2 | 12.9 | 0.00 | 0.00 | 0.00 | 61 | 1015.0 |
| 20260504140806 | 20 | 62 | 4.8 | 8.0 | 0.00 | 0.00 | 0.00 | 62 | 1015.0 |
| 20260504140302 | 20 | 266 | 6.4 | 11.3 | 0.00 | 0.00 | 0.00 | 65 | 1014.7 |
| 20260504130731 | 17 | 255 | 4.8 | 6.4 | 0.00 | 0.00 | 0.00 | 69 | 1014.7 |
| 20260504130226 | 17 | 154 | 1.6 | 6.4 | 0.00 | 0.00 | 0.00 | 71 | 1014.9 |
| 20260504120150 | 13 | 88 | 3.2 | 4.8 | 0.00 | 0.00 | 0.00 | 85 | 1014.4 |